Hyde Park, UT

12:06 PM MST on February 20, 2017 (GMT -0700)
Logan-Cache

Weather History for KLGU - February, 2014

Change the Weather History Date:

Wednesday, February 26, 2014

  Actual Average Record
Temperature  
Mean Temperature 42 °F -  
Max Temperature 57 °F 40 °F 64 °F (1986)
Min Temperature 28 °F 20 °F -15 °F (1964)
Degree Days  
Heating Degree Days 22    
Moisture  
Dew Point 31 °F    
Average Humidity 70    
Maximum Humidity 89    
Minimum Humidity 40    
Precipitation  
Precipitation 0.00 in - - ()
Sea Level Pressure  
Sea Level Pressure 29.98 in    
Wind  
Wind Speed 2 mph (WNW)    
Max Wind Speed 7 mph    
Max Gust Speed -    
Visibility 10 miles    
Events      
Averages and records for this station are not official NWS values.
T = Trace of Precipitation, MM = Missing Value Source: NWS Daily Summary

Daily Weather History Graph

Daily Weather History Graph

Search for Another Location

Airport or City:

Trip Planner

Search our weather history database for the weather conditions in past years. The results will help you decide how hot, cold, wet, or windy it might be!

Date:

Astronomy

Feb. 26, 2014 Rise Set
Actual Time 7:06 AM MST 6:14 PM MST
Civil Twilight 6:38 AM MST 6:42 PM MST
Nautical Twilight 6:06 AM MST 7:14 PM MST
Astronomical Twilight 5:34 AM MST 7:46 PM MST
Moon 4:57 AM MST (2/26) 3:31 PM MST (2/26)
Length of Visible Light 12h 03m
Length of Day
11h 07m
Waning Crescent, 9% of the Moon is Illuminated
Feb 26
Waning Crescent
Mar 1
New
Mar 8
First Quarter
Mar 16
Full
Mar 23
Last Quarter

Hourly Weather History & Observations

Time (MST) Temp. Windchill Dew Point Humidity Pressure Visibility Wind Dir Wind Speed Gust Speed Precip Events Conditions
12:51 AM 37.0 °F 34.5 °F 30.0 °F 76% 30.04 in 10.0 mi SSW 3.5 mph - N/A   Partly Cloudy
1:51 AM 36.0 °F - 30.0 °F 79% 30.04 in 10.0 mi Calm Calm - N/A   Clear
2:51 AM 33.1 °F - 28.9 °F 85% 30.03 in 10.0 mi Calm Calm - N/A   Clear
3:51 AM 30.0 °F - 26.1 °F 85% 30.04 in 10.0 mi Calm Calm - N/A   Clear
4:51 AM 32.0 °F - 27.0 °F 82% 30.03 in 10.0 mi Calm Calm - N/A   Clear
5:51 AM 28.0 °F - 25.0 °F 88% 30.05 in 10.0 mi Calm Calm - N/A   Clear
6:51 AM 28.0 °F 24.2 °F 24.1 °F 85% 30.06 in 10.0 mi NE 3.5 mph - N/A   Clear
7:51 AM 28.9 °F - 25.0 °F 85% 30.07 in 10.0 mi Calm Calm - N/A   Clear
8:51 AM 34.0 °F - 30.9 °F 89% 30.08 in 10.0 mi Calm Calm - N/A   Clear
9:51 AM 39.0 °F 36.8 °F 30.9 °F 73% 30.07 in 10.0 mi WNW 3.5 mph - N/A   Clear
10:51 AM 43.0 °F 41.3 °F 32.0 °F 65% 30.05 in 10.0 mi WNW 3.5 mph - N/A   Clear
11:51 AM 46.9 °F - 32.0 °F 56% 30.03 in 10.0 mi North 3.5 mph - N/A   Clear
12:51 PM 48.9 °F - 33.1 °F 54% 29.99 in 10.0 mi Variable 4.6 mph - N/A   Clear
1:51 PM 52.0 °F - 34.0 °F 50% 29.96 in 10.0 mi NNW 4.6 mph - N/A   Partly Cloudy
2:51 PM 55.0 °F - 35.1 °F 47% 29.93 in 10.0 mi Calm Calm - N/A   Partly Cloudy
3:51 PM 57.0 °F - 34.0 °F 42% 29.91 in 10.0 mi WSW 3.5 mph - N/A   Scattered Clouds
4:51 PM 57.0 °F - 33.1 °F 40% 29.88 in 10.0 mi Calm Calm - N/A   Clear
5:51 PM 53.1 °F - 35.1 °F 50% 29.89 in 10.0 mi NW 3.5 mph - N/A   Clear
6:51 PM 46.9 °F - 34.0 °F 61% 29.90 in 10.0 mi East 6.9 mph - N/A   Clear
7:51 PM 45.0 °F 43.5 °F 34.0 °F 65% 29.90 in 10.0 mi South 3.5 mph - N/A   Clear
8:51 PM 37.0 °F 34.5 °F 33.1 °F 86% 29.90 in 10.0 mi West 3.5 mph - N/A   Clear
9:51 PM 37.9 °F - 32.0 °F 79% 29.87 in 10.0 mi Calm Calm - N/A   Clear
10:51 PM 35.1 °F - 30.0 °F 82% 29.86 in 10.0 mi Calm Calm - N/A   Clear
11:51 PM 35.1 °F - 30.0 °F 82% 29.83 in 10.0 mi Calm Calm - N/A   Clear